Location: Izdebno
(52.6670°N, 16.2170°E)
Time: 04:41:37
(UTC+02:00)

Transit 2A - Pass Details

Date: 03 March 2024
Orbit: 596 x 956 km, 66.7° (Epoch: 21 April)

Event Time Altitude Azimuth Distance (km) Brightness Sun altitude
Rises 01:57:30 0° 320° (NW) 2,978 - -38.8°
Reaches altitude 10° 01:59:42 10° 322° (NW) 2,106 - -38.6°
Maximum altitude 02:04:29 82° 49° (NE) 731 - -38.1°
Drops below altitude 10° 02:09:47 10° 138° (SE) 2,320 - -37.6°
Sets 02:12:18 0° 140° (SE) 3,306 - -37.4°
